Powrót do katalogu

FLOCK 4G 2

AktywnyNaukaSSO
NORAD 62661·PAYLOAD·🇺🇸 United States

Wystrzelony Jan 14, 2025 z Vandenberg Space Force Base

Loading…

Następne Przeloty (najbliższe 24 godziny)

TLE

ŚwieżeSource: CelesTrak SupGP

Epoka: Sep 14, 2026, 14:44 UTC

1 62661C 25009BE  26257.61417824  .00009458  00000+0  31269-3 0  2578
2 62661  97.3949 339.3429 0004255  20.2499 157.8271 15.31403573    13

Śledź FLOCK 4G 2 w czasie rzeczywistym z AllMySat

Download on the App Store